Meteo Giornale » Osservazioni meteo Spagna » Burgos-Villafria
ore: 21:00 - Osservazioni Meteo Burgos-Villafria
Lat. 42° 22' N Lon. 3° 38' W Alt. 894 metri s.l.m.
21 °C
Sereno
Temp. 24 Ore
11 °C
27 °C
Nord-Est
22.2 Km/h
Dew point 12 °C
Umidità 56 %
Visibilità 10 Km
Il sole sorge alle ore 07:39
Il sole tramonta alle ore 20:49
| Data e Ora | Cielo e Fenomeni | T °C | DP °C | Um. % | Pres. hPa | Vis. km | Vento km/h | |
|---|---|---|---|---|---|---|---|---|
| Oggi h: 21:00 | Sereno | 21 | 12 | 56 | 1022 | 10 | NE 22.2 | |
| Oggi h: 20:30 | Sereno | 22 | 12 | 53 | 1022 | 10 | NE 18.5 | |
| Oggi h: 20:00 | Sereno | 23 | 10 | 43 | 1021 | 10 | E/NE 22.2 | |
| Oggi h: 19:30 | Sereno | 25 | 10 | 38 | 1021 | 10 | E/NE 18.5 | |
| Oggi h: 19:00 | Sereno | 25 | 10 | 38 | 1021 | 10 | NE 16.7 | |
| Oggi h: 18:30 | Sereno | 26 | 10 | 36 | 1021 | 10 | E/NE 14.8 | |
| Oggi h: 18:00 | Sereno | 27 | 9 | 32 | 1021 | 10 | NE 14.8 | |
| Oggi h: 17:30 | Sereno | 27 | 8 | 30 | 1021 | 10 | NE 7.4 | |
| Oggi h: 17:00 | Sereno | 27 | 8 | 30 | 1021 | 10 | N 5.5 | |
| Oggi h: 16:30 | Sereno | 26 | 9 | 34 | 1021 | 10 | N 11.1 | |
| Oggi h: 16:00 | Sereno | 26 | 8 | 31 | 1021 | 10 | N/NO 11.1 | |
| Oggi h: 15:30 | Sereno | 26 | 9 | 34 | 1021 | 10 | N/NE 7.4 | |
| Oggi h: 15:00 | Sereno | 25 | 9 | 36 | 1021 | 10 | E 9.3 | |
| Oggi h: 14:30 | Sereno | 25 | 10 | 38 | 1022 | 10 | E/NE 7.4 | |
| Oggi h: 14:00 | Sereno | 24 | 11 | 43 | 1022 | 10 | E/NE 9.3 | |
| Oggi h: 13:30 | Sereno | 22 | 11 | 49 | 1022 | 10 | NE 11.1 | |
| Oggi h: 13:00 | Sereno | 21 | 11 | 52 | 1022 | 10 | NE 13 | |
| Oggi h: 12:30 | Sereno | 19 | 12 | 63 | 1022 | 10 | NE 14.8 | |
| Oggi h: 12:00 | Sereno | 18 | 11 | 63 | 1023 | 10 | N/NE 16.7 | |
| Oggi h: 11:30 | Poco Nuvoloso | 16 | 11 | 72 | 1023 | 10 | N/NE 20.3 | |
| Oggi h: 11:00 | Poco Nuvoloso | 16 | 11 | 72 | 1022 | 9 | NE 18.5 | |
| Oggi h: 10:30 | Poco Nuvoloso | 15 | 11 | 76 | 1022 | 9 | NE 20.3 | |
| Oggi h: 10:11 | Nuvoloso | 14 | 12 | 87 | 1022 | 8 | NE 22.2 | |
| Oggi h: 10:00 | Molto Nuvoloso | 14 | 11 | 82 | 1022 | 8 | NE 22.2 | |
| Oggi h: 09:30 | Molto Nuvoloso | 14 | 11 | 82 | 1022 | 6 | E/NE 20.3 | |
| Oggi h: 09:00 | Molto Nuvoloso | 13 | 11 | 87 | 1022 | 6 | E/NE 18.5 | |
| Oggi h: 08:30 | Molto Nuvoloso | 12 | 12 | 100 | 1022 | 8 | E/NE 18.5 | |
| Oggi h: 08:00 | Coperto | 12 | 11 | 93 | 1022 | 10 | NE 20.3 | |
| Oggi h: 07:30 | Coperto | 12 | 12 | 100 | 1022 | 10 | NE 13 | |
| Oggi h: 07:00 | Coperto | 12 | 12 | 100 | 1022 | 10 | E/NE 16.7 | |
| Oggi h: 06:30 | Coperto | 12 | 11 | 93 | 1022 | 10 | NE 20.3 | |
| Oggi h: 06:00 | Coperto | 11 | 11 | 100 | 1022 | 10 | NE 18.5 | |
| Oggi h: 05:30 | Poco Nuvoloso | 11 | 11 | 100 | 1022 | 10 | NE 13 | |
| Oggi h: 05:00 | Sereno | 11 | 11 | 100 | 1022 | 10 | N/NE 13 | |
| Oggi h: 04:30 | Sereno | 11 | 11 | 100 | 1022 | 10 | N/NE 11.1 | |
| Oggi h: 04:00 | Sereno | 11 | 11 | 100 | 1023 | 10 | NE 13 | |
| Oggi h: 03:30 | Sereno | 11 | 11 | 100 | 1023 | 10 | NE 16.7 | |
| Oggi h: 03:00 | Sereno | 12 | 11 | 93 | 1023 | 10 | NE 14.8 | |
| Oggi h: 02:30 | Sereno | 12 | 11 | 93 | 1023 | 10 | N/NE 13 | |
| Oggi h: 02:00 | Sereno | 12 | 11 | 93 | 1023 | 10 | NE 14.8 | |
| Oggi h: 01:30 | Sereno | 12 | 11 | 93 | 1023 | 10 | NE 14.8 | |
| Oggi h: 01:00 | Sereno | 13 | 11 | 87 | 1024 | 10 | NE 16.7 | |
| Oggi h: 00:30 | Sereno | 13 | 11 | 87 | 1024 | 10 | NE 14.8 | |
| Oggi h: 00:00 | Sereno | 13 | 11 | 87 | 1024 | 10 | NE 22.2 | |
| Ieri h: 23:30 | Sereno | 14 | 10 | 76 | 1024 | 10 | NE 20.3 | |
| Ieri h: 23:00 | Sereno | 14 | 10 | 76 | 1024 | 10 | NE 22.2 | |
| Ieri h: 22:30 | Sereno | 15 | 10 | 72 | 1023 | 10 | NE 24 | |
| Ieri h: 22:00 | Sereno | 16 | 10 | 67 | 1023 | 10 | NE 24 | |



